Regional Weather Roundup
Issued by NWS Cleveland, OH

Home | Current Version | Previous Version | Graphics & Text | Print | Product List | Glossary On
Versions: 1 2 3 4 5 6 7 8 9 10 11 12 13 14 15 16 17 18 19 20 21 22 23 24 25 26 27 28 29 30 31 32 33 34 35 36 37 38 39 40 41 42 43 44 45 46 47 48 49 50
073
ASUS41 KCLE 280800
RWRCLE
OHIO REGIONAL WEATHER ROUNDUP
NATIONAL WEATHER SERVICE WILMINGTON, OH
300 AM EST TUE FEB 28 2017

NOTE: "FAIR" INDICATES FEW OR NO CLOUDS BELOW 12,000 FEET WITH NO
SIGNIFICANT WEATHER AND/OR OBSTRUCTIONS TO VISIBILITY.

OHZ001>008-015>018-024>027-034-035-043-044-280900-
   NORTHWEST OHIO

CITY           SKY/WX    TMP DP  RH WIND       PRES   REMARKS
DEFIANCE       MOCLDY    40  38  93 SE5       30.13F
FINDLAY        MOCLDY    41  37  86 SE7       30.13F
TOLEDO EXPRESS MOCLDY    38  38 100 SE3       30.14F FOG
TOLEDO EXEC    MOCLDY    40  39  97 SE7       30.16F FOG
LIMA           FAIR      43  40  89 S14       30.12F
$$

OHZ009>014-019>023-028>033-038-089-280900-
   NORTHEAST OHIO

CITY           SKY/WX    TMP DP  RH WIND       PRES   REMARKS
CLE-HOPKINS    MOCLDY    40  35  83 SE8       30.21F
CLE-LAKEFRONT  FAIR      42  36  79 SE14      30.18F
CUY CO. ARPT   NOT AVBL
LORAIN-ELYRIA  FAIR      37  34  89 S5        30.19F
ASHTABULA      FAIR      39  36  89 SE6       30.24F
AKRON-CANTON   FAIR      38  34  85 SE6       30.21F FOG
WOOSTER        NOT AVBL
MANSFIELD      FAIR      39  38  96 S9        30.17F
YOUNGSTOWN     CLOUDY    36  34  92 E6        30.23F
$$

OHZ042-051>053-060>062-070>072-077>081-280900-
  SOUTHWEST OHIO

CITY           SKY/WX    TMP DP  RH WIND       PRES   REMARKS
CINC-COVINGTON MOCLDY    44  39  82 S9        30.12F
CINC-LUNKEN    FAIR      37  37 100 W3        30.14F
HAMILTON       FAIR      44  39  82 CALM      30.13F
DAYTON         NOT AVBL
WRIGHT-PAT AFB NOT AVBL
DAYTON GENERAL FAIR      45  38  76 S9        30.11F
WILMINGTON     FAIR      42  37  82 S6        30.13F
$$

OHZ036-037-039>041-045>050-054>059-063>069-073>076-082>088-280900-
  CENTRAL AND SOUTHEAST OHIO

CITY           SKY/WX    TMP DP  RH WIND       PRES   REMARKS
COLUMBUS       CLOUDY    43  38  82 E6        30.15F
OSU AIRPORT    FAIR      39  39 100 SE6       30.15F
BOLTON FIELD   NOT AVBL
RICKENBACK AFB NOT AVBL
NEWARK         FOG       33  31  92 CALM      30.18F VSB 1/2
MARION         FAIR      40  37  89 SE9       30.16F
LANCASTER      FAIR      42  38  85 SE8       30.18F
ZANESVILLE     FAIR      33  32  96 SE3       30.21F FOG
NEW PHILLY     CLOUDY    32  31  96 CALM      30.23F
$$




USA.gov is the U.S. government's official web portal to all federal, state and local government web resources and services.